GW2584 Weather Reports


time (UTC)temp
F
wind
direction
speed
knots
gust
knots
rain 1hr
in
rain 24hr
in
rain mn
in
humidity
%
barometer
mb
20260906221606 74 0 0.0 0.9 0.00 0.03 0.03 47 1021.5
20260906220106 75 237 0.0 0.9 0.00 0.03 0.03 47 1021.4
20260906214605 75 0 0.0 1.7 0.02 0.03 0.03 47 1021.7
20260906213103 76 0 0.0 0.9 0.03 0.03 0.03 50 1021.9
20260906211611 74 0 0.0 1.7 0.03 0.03 0.03 53 1022.0
20260906210105 72 178 0.0 1.7 0.03 0.03 0.03 63 1022.3
20260906204644 74 69 0.0 3.5 0.01 0.01 0.01 50 1022.5
20260906203108 75 0 0.0 3.5 0.00 0.00 0.00 42 1022.5
20260906201646 76 77 0.0 5.2 0.00 0.00 0.00 39 1022.6
20260906200105 77 62 1.7 7.0 0.00 0.00 0.00 38 1022.4
20260906194607 79 343 3.5 10.4 0.00 0.00 0.00 37 1022.4
20260906193110 79 44 2.6 7.0 0.00 0.00 0.00 36 1022.5
20260906191622 77 356 6.1 10.4 0.00 0.00 0.00 38 1022.7
20260906190109 78 20 4.3 8.7 0.00 0.00 0.00 38 1022.8
20260906184603 78 86 4.3 10.4 0.00 0.00 0.00 37 1022.9
20260906183104 78 4 4.3 9.6 0.00 0.00 0.00 36 1023.1
20260906181607 76 44 3.5 10.4 0.00 0.00 0.00 38 1023.5
20260906180104 76 30 3.5 7.8 0.00 0.00 0.00 41 1023.8
20260906174613 74 347 2.6 7.0 0.00 0.00 0.00 45 1024.0
20260906173108 73 50 3.5 9.6 0.00 0.00 0.00 46 1024.2
20260906171606 74 92 2.6 7.0 0.00 0.00 0.00 46 1024.5
20260906170114 73 37 1.7 7.0 0.00 0.00 0.00 45 1024.5
20260906164604 72 360 2.6 6.1 0.00 0.00 0.00 43 1024.6
20260906163105 71 51 2.6 5.2 0.00 0.00 0.00 49 1024.6
20260906161607 70 20 3.5 7.0 0.00 0.00 0.00 54 1024.5
20260906160107 70 49 2.6 7.0 0.00 0.00 0.00 50 1024.5
20260906154614 70 34 3.5 6.1 0.00 0.00 0.00 47 1024.2
20260906153125 70 25 1.7 3.5 0.00 0.00 0.00 48 1024.3
20260906151606 68 65 1.7 4.3 0.00 0.00 0.00 52 1024.4
20260906150106 67 35 0.9 4.3 0.00 0.00 0.00 53 1024.5
20260906144617 65 30 0.0 4.3 0.00 0.00 0.00 56 1024.4
20260906143106 65 23 2.6 4.3 0.00 0.00 0.00 54 1024.4
20260906141618 69 41 1.7 2.6 0.00 0.00 0.00 43 1024.1
20260906140110 68 68 0.0 1.7 0.00 0.00 0.00 44 1023.9
20260906134634 67 0 0.0 0.9 0.00 0.00 0.00 43 1023.9
20260906133107 64 345 0.9 2.6 0.00 0.00 0.00 55 1023.9
20260906131606 62 0 0.0 0.0 0.00 0.00 0.00 62 1024.0
20260906130108 61 0 0.0 0.0 0.00 0.00 0.00 66 1024.0
20260906124608 59 0 0.0 0.0 0.00 0.00 0.00 68 1023.9
20260906123108 58 0 0.0 0.0 0.00 0.00 0.00 67 1023.7
20260906121607 59 0 0.0 0.0 0.00 0.00 0.00 60 1023.6
20260906120109 60 0 0.0 0.0 0.00 0.00 0.00 53 1023.6
20260906114633 60 0 0.0 0.0 0.00 0.00 0.00 50 1023.6
20260906113101 60 0 0.0 1.7 0.00 0.00 0.00 51 1023.5
20260906111626 60 0 0.0 0.9 0.00 0.00 0.00 52 1023.5
20260906104607 60 0 0.0 0.9 0.00 0.00 0.00 61 1023.6
20260906103111 60 0 0.0 0.9 0.00 0.00 0.00 61 1023.7
20260906101604 61 0 0.0 0.0 0.00 0.00 0.00 55 1023.7
20260906094604 64 0 0.0 0.9 0.00 0.00 0.00 48 1023.5
20260906093108 65 0 0.0 0.9 0.00 0.00 0.00 47 1023.7
20260906091612 65 193 1.7 3.5 0.00 0.00 0.00 48 1023.7
20260906090116 63 0 0.0 0.9 0.00 0.00 0.00 50 1023.7
20260906084611 64 0 0.0 0.9 0.00 0.00 0.00 49 1023.5
20260906083106 65 0 0.0 0.9 0.00 0.00 0.00 47 1023.4
20260906081607 65 0 0.0 2.6 0.00 0.00 0.00 48 1023.5
20260906080104 65 0 0.0 1.7 0.00 0.00 0.00 48 1023.6
20260906074611 65 0 0.0 0.9 0.00 0.00 0.00 48 1023.7
20260906073110 66 0 0.0 1.7 0.00 0.00 0.00 47 1023.8
20260906071609 67 0 0.0 2.6 0.00 0.00 0.00 45 1023.9
20260906070135 68 0 0.0 3.5 0.00 0.00 0.00 43 1023.8
20260906064602 69 0 0.0 2.6 0.00 0.00 0.00 42 1023.8
20260906063108 69 207 0.0 2.6 0.00 0.00 0.00 41 1023.7
20260906061635 70 188 0.9 7.8 0.00 0.00 0.00 41 1023.9
20260906060109 70 214 1.7 5.2 0.00 0.00 0.00 39 1023.8
20260906054602 71 0 0.0 2.6 0.00 0.00 0.00 38 1024.3
20260906053101 72 63 1.7 3.5 0.00 0.00 0.00 37 1024.6
20260906051606 72 0 1.7 9.6 0.00 0.00 0.00 37 1024.6
20260906050116 73 207 4.3 8.7 0.00 0.00 0.00 35 1023.9
20260906044603 72 212 2.6 8.7 0.00 0.00 0.00 35 1023.8
20260906043112 72 222 2.6 10.4 0.00 0.00 0.00 36 1023.7
20260906041608 72 239 2.6 9.6 0.00 0.00 0.00 36 1023.6
20260906040119 72 264 3.5 17.4 0.00 0.00 0.00 36 1023.6
20260906034602 73 211 7.0 13.9 0.00 0.00 0.00 33 1023.6
20260906033108 73 215 0.9 4.3 0.00 0.00 0.00 32 1023.4
20260906031618 73 221 0.9 5.2 0.00 0.00 0.00 32 1023.4
20260906030113 73 224 0.9 9.6 0.00 0.00 0.00 33 1023.1
20260906024607 72 251 5.2 10.4 0.00 0.00 0.00 34 1023.0
20260906023132 72 239 2.6 9.6 0.00 0.00 0.00 34 1022.9
20260906021608 73 217 2.6 9.6 0.00 0.00 0.00 35 1022.9
20260906020107 74 234 0.9 3.5 0.00 0.00 0.00 32 1022.8
20260906014629 74 205 4.3 9.6 0.00 0.00 0.00 31 1023.3
20260906013103 74 245 3.5 9.6 0.00 0.00 0.00 33 1023.0
20260906011608 74 199 3.5 7.8 0.00 0.00 0.00 32 1022.8
20260906010111 74 192 3.5 7.8 0.00 0.00 0.00 32 1022.8
20260906004614 75 214 2.6 5.2 0.00 0.00 0.00 32 1023.1
20260906003109 76 0 0.0 4.3 0.00 0.00 0.00 31 1023.1
20260906001602 76 195 1.7 6.1 0.00 0.00 0.00 31 1023.0
20260906000111 77 211 1.7 7.0 0.00 0.00 0.00 30 1023.0
20260905234605 79 233 1.7 8.7 0.00 0.00 0.00 28 1022.8
20260905233106 78 73 1.7 5.2 0.00 0.00 0.00 26 1022.9
20260905231607 79 204 0.0 4.3 0.00 0.00 0.00 26 1022.7
20260905230110 80 160 1.7 5.2 0.00 0.00 0.00 24 1022.4
20260905224610 80 335 0.0 2.6 0.00 0.00 0.00 23 1022.5
20260905223107 80 280 0.0 3.5 0.00 0.00 0.00 23 1022.5